[[{"header":{"parameterUnit":"m.s-1","parameterCategory":1,"la1":30.2991,"la2":30.254,"lo1":-89.0895,"lo2":-89.0444,"dy":0.0017,"dx":0.0017,"nx":28,"ny":28,"refTime":"2025-09-08T09:00:00:Z","depth":0,"parameterNumber":2,"parameterNumberName":"U-component_of_WINDS"},"data":[0,0,0,0,0,0,0,0,0,0,0,0,0,0,0,0,0,0,0,0,0,0,0,0,0,0,0,0,0,0,0,0,0,0,0,0,0,0,0,0,0,0,0,0,0,0,0,0,0,0,0,0,0,0,0,0,0,0,-5.2836,-5.2837,0,-5.29,-5.2901,-5.2902,-5.274,-5.2735,-5.273,-5.2725,-5.2789,-5.2796,-5.2802,0,0,0,0,0,0,0,0,0,0,0,0,0,-5.2572,-5.2578,-5.2836,-5.2837,-5.2838,-5.29,-5.2901,-5.2902,-5.2741,-5.2734,-5.2728,-5.2722,-5.2787,-5.2795,-5.2803,0,0,0,0,0,0,0,0,0,0,0,0,0,-5.2667,-5.258,-5.2836,-5.2765,-5.2759,-5.29,-5.2901,-5.2902,-5.2742,-5.2734,-5.2727,-5.272,-5.2785,-5.2794,-5.2804,-5.3016,0,0,-5.2833,-5.2838,0,0,0,0,0,0,0,0,-5.2661,-5.2676,-5.2774,-5.277,-5.2764,-5.2804,-5.2831,-5.294,-5.2744,-5.2748,-5.2725,-5.2716,-5.28,-5.2808,-5.2837,-5.3019,-5.3022,-5.2834,-5.284,-5.2844,-5.2847,0,0,0,0,0,0,0,-5.2655,-5.2673,-5.2861,-5.2776,-5.2769,-5.2729,-5.2734,-5.2851,-5.2816,-5.2747,-5.2736,-5.2746,-5.2796,-5.2828,-5.2837,-5.3023,-5.2834,-5.2843,-5.2849,-5.2852,-5.3382,-5.339,0,0,0,0,0,0,-5.2658,-5.2668,-5.2859,-5.2863,-5.2693,-5.274,-5.2746,-5.2799,-5.2815,-5.281,-5.2752,-5.2738,-5.2815,-5.2826,-5.2839,-5.3088,-5.2844,-5.2853,-5.2859,-5.3374,-5.3384,-5.3393,0,0,0,0,0,0,-5.2653,-5.2676,-5.2856,-5.2763,-5.2782,-5.2753,-5.2814,-5.2804,-5.2836,-5.2818,-5.2811,-5.2792,-5.281,-5.2825,-5.2973,-5.3088,-5.2858,-5.2866,-5.3364,-5.3377,-5.3389,-5.359,0,0,0,0,0,0,-5.2646,-5.2676,-5.2756,-5.2766,-5.2788,-5.2991,-5.2821,-5.2811,-5.2853,-5.2835,-5.2853,-5.2849,-5.2805,-5.296,-5.2983,-5.3098,-5.2874,-5.3354,-5.337,-5.3385,-5.3573,-5.3608,-5.3637,0,0,0,0,0,-5.2637,-5.281,-5.2761,-5.2785,-5.2889,-5.2998,-5.301,-5.2957,-5.2863,-5.2944,-5.2932,-5.2848,-5.3073,-5.2976,-5.3001,-5.3121,-5.3346,-5.3365,-5.3384,-5.3558,-5.3601,-5.3637,0,0,0,0,0,0,-5.2814,-5.281,-5.2756,-5.2937,-5.2969,-5.297,-5.307,-5.3004,-5.3062,-5.3043,-5.2973,-5.2979,-5.314,-5.3145,-5.3038,-5.3327,-5.3193,-5.3218,-5.3318,-5.3358,-5.339,-5.3385,-5.2882,0,0,0,0,0,-5.2875,-5.2964,-5.2955,-5.3116,-5.3135,-5.3101,-5.3146,-5.3102,-5.3132,-5.3145,-5.3144,-5.3176,-5.3253,-5.3306,-5.3376,-5.3573,-5.3574,-5.3667,-5.3699,-5.3726,-5.3748,-5.3852,-5.3893,-5.3454,-5.3454,-5.3454,0,0,-5.3,-5.3009,-5.3069,-5.3152,-5.3172,-5.3266,-5.3113,-5.3219,-5.3287,-5.316,-5.33,-5.3301,-5.3332,-5.3506,-5.3582,-5.3515,-5.387,-5.375,-5.3771,-5.3778,-5.3876,-5.3917,-5.3954,-5.3467,-5.3464,-5.3462,0,0,-5.3276,-5.3292,-5.3428,-5.3451,-5.3483,-5.3458,-5.3492,-5.3503,-5.3499,-5.3638,-5.3545,-5.3626,-5.3761,-5.3787,-5.3818,-5.4105,-5.403,-5.413,-5.4299,-5.4401,-5.4436,-5.4466,-5.4568,-5.4606,-5.4152,-5.4152,-5.4153,0,-5.3427,-5.3565,-5.3506,-5.3618,-5.3657,-5.3548,-5.3684,-5.3709,-5.3763,-5.3792,-5.3716,-5.3883,-5.3897,-5.4075,-5.4145,-5.4174,-5.4209,-5.4127,-5.4436,-5.4465,-5.4493,-5.459,-5.4628,-5.4164,-5.4163,-5.4162,-5.4161,0,-5.375,-5.3847,-5.3953,-5.4008,-5.4059,-5.4183,-5.4142,-5.4201,-5.4153,-5.4137,-5.428,-5.4292,-5.4363,-5.4402,-5.4356,-5.4574,-5.4532,-5.4447,-5.4311,-5.4548,-5.4637,-5.4674,-5.4181,-5.4177,-5.4174,-5.4171,0,0,-5.4138,-5.416,-5.4199,-5.4223,-5.4251,-5.4325,-5.4444,-5.4514,-5.4565,-5.4606,-5.4704,-5.4821,-5.4744,-5.4779,-5.4735,-5.4825,-5.5052,-5.4729,-5.4729,-5.4788,-5.5293,-5.5356,-5.54,-5.5002,-5.5009,-5.5015,-5.529,0,-5.441,-5.4616,-5.4566,-5.4769,-5.4858,-5.4756,-5.4859,-5.4888,-5.4876,-5.495,-5.4936,-5.5021,-5.4912,-5.4932,-5.5017,-5.5006,-5.5152,-5.4986,-5.5092,-5.5097,-5.5087,-5.5447,-5.5513,-5.5773,-5.5325,-5.5331,-5.5335,0,-5.4755,-5.481,-5.5023,-5.5036,-5.5072,-5.5166,-5.5226,-5.5298,-5.5328,-5.5313,-5.5354,-5.5292,-5.5409,-5.5274,-5.5434,-5.5323,-5.5363,-5.5365,-5.5374,-5.5381,-5.523,-5.5463,-5.5854,-5.5893,-5.5389,-5.5385,-5.5381,0,-5.5017,-5.5144,-5.5287,-5.5311,-5.533,-5.5399,-5.541,-5.5433,-5.5478,-5.5531,-5.5559,-5.5625,-5.5661,-5.5714,-5.5671,-5.5576,-5.5839,-5.57,-5.583,-5.5831,-5.5889,-5.5886,-5.6292,-5.5917,-5.5916,-5.5916,-5.5915,0,-5.5326,-5.546,-5.5405,-5.5494,-5.564,-5.5582,-5.5729,-5.5728,-5.5749,-5.5835,-5.575,-5.5833,-5.5772,-5.585,-5.5817,-5.5955,-5.5972,-5.5963,-5.5953,-5.5971,-5.5972,-5.5996,-5.5977,-5.5926,-5.5924,-5.5922,-5.592,0,-5.5642,-5.5611,-5.5761,-5.5768,-5.5773,-5.5881,-5.5886,-5.5968,-5.595,-5.606,-5.6083,-5.6056,-5.6142,-5.6106,-5.6197,-5.6175,-5.6352,-5.6318,-5.6343,-5.6334,-5.6466,-5.6454,-5.69,-5.6956,-5.6546,-5.655,-5.6554,0,-5.5841,-5.5942,-5.596,-5.6012,-5.6029,-5.6114,-5.616,-5.6106,-5.6158,-5.62,-5.6277,-5.6357,-5.6417,-5.656,-5.6549,-5.6618,-5.6585,-5.6737,-5.6595,-5.661,-5.6587,-5.6581,-5.6591,-5.6765,-5.677,-5.6774,-5.6777,0,-5.6197,-5.6177,-5.6247,-5.6313,-5.6371,-5.642,-5.6461,-5.6508,-5.6457,-5.6519,-5.6607,-5.6654,-5.6748,-5.6828,-5.689,-5.69,-5.6831,-5.6822,-5.6856,-5.6874,-5.6884,-5.688,-5.642,-5.6812,-5.6808,-5.6806,-5.6804,-5.6802,-5.646,-5.6545,-5.6571,-5.6652,-5.6678,-5.6719,-5.6796,-5.6789,-5.6862,-5.6934,-5.6898,-5.7001,-5.7028,-5.7104,-5.7125,-5.7204,-5.7144,-5.7193,-5.7205,-5.7218,-5.7235,-5.6873,-5.7215,-5.7214,-5.7213,-5.7212,-5.7211,0,-5.6811,-5.6823,-5.6899,-5.696,-5.7024,-5.6954,-5.6996,-5.7054,-5.7146,-5.7178,-5.7239,-5.7341,-5.7418,-5.7414,-5.7485,-5.7549,-5.7519,-5.757,-5.7564,-5.7567,-5.7285,-5.7248,-5.7593,-5.7593,-5.7593,-5.7593,-5.7592,-5.7592,-5.7001,-5.7141,-5.7124,-5.7276,-5.7287,-5.7387,-5.7418,-5.7455,-5.748,-5.7597,-5.7662,-5.7658,-5.7675,-5.7747,-5.7815,-5.7812,-5.7842,-5.7905,-5.7889,-5.7625,-5.7587,-5.7551,-5.7516,-5.7912,-5.7912,-5.8165,-5.8168,-5.8169]},{"header":{"parameterUnit":"m.s-1","parameterCategory":1,"la1":30.2991,"la2":30.254,"lo1":-89.0895,"lo2":-89.0444,"dy":0.0017,"dx":0.0017,"nx":28,"ny":28,"refTime":"2025-09-08T09:00:00:Z","depth":0,"parameterNumber":3,"parameterNumberName":"V-component_of_WINDS"},"data":[0,0,0,0,0,0,0,0,0,0,0,0,0,0,0,0,0,0,0,0,0,0,0,0,0,0,0,0,0,0,0,0,0,0,0,0,0,0,0,0,0,0,0,0,0,0,0,0,0,0,0,0,0,0,0,0,0,0,-2.4111,-2.4111,0,-2.4112,-2.4112,-2.4112,-2.4088,-2.4087,-2.4086,-2.4086,-2.4086,-2.4086,-2.4087,0,0,0,0,0,0,0,0,0,0,0,0,0,-2.4086,-2.4087,-2.4111,-2.4111,-2.4111,-2.4112,-2.4112,-2.4112,-2.4088,-2.4087,-2.4086,-2.4085,-2.4086,-2.4086,-2.4087,0,0,0,0,0,0,0,0,0,0,0,0,0,-2.4093,-2.4087,-2.4111,-2.4099,-2.4098,-2.4112,-2.4112,-2.4112,-2.4088,-2.4087,-2.4086,-2.4085,-2.4085,-2.4086,-2.4087,-2.4112,0,0,-2.409,-2.409,0,0,0,0,0,0,0,0,-2.4093,-2.4094,-2.4101,-2.41,-2.4099,-2.4099,-2.4103,-2.4112,-2.4088,-2.4092,-2.4086,-2.4084,-2.4091,-2.4091,-2.4093,-2.4112,-2.4112,-2.409,-2.409,-2.4091,-2.4091,0,0,0,0,0,0,0,-2.4092,-2.4094,-2.4111,-2.4101,-2.41,-2.4093,-2.4093,-2.4105,-2.4097,-2.4091,-2.409,-2.409,-2.409,-2.4093,-2.4093,-2.4112,-2.409,-2.4091,-2.4091,-2.4092,-2.4148,-2.4148,0,0,0,0,0,0,-2.4094,-2.4094,-2.4111,-2.4111,-2.4093,-2.4094,-2.4094,-2.41,-2.4096,-2.4095,-2.4091,-2.4089,-2.4091,-2.4092,-2.4093,-2.412,-2.4091,-2.4092,-2.4092,-2.4147,-2.4148,-2.4149,0,0,0,0,0,0,-2.4093,-2.4096,-2.4111,-2.4102,-2.4103,-2.4096,-2.4102,-2.41,-2.4103,-2.4096,-2.4094,-2.4095,-2.4091,-2.4092,-2.4107,-2.4119,-2.4092,-2.4093,-2.4145,-2.4147,-2.4148,-2.4175,0,0,0,0,0,0,-2.4093,-2.4096,-2.4106,-2.4102,-2.4104,-2.4126,-2.4103,-2.4101,-2.4104,-2.4102,-2.41,-2.4098,-2.409,-2.4105,-2.4108,-2.412,-2.4094,-2.4144,-2.4146,-2.4148,-2.4173,-2.4177,-2.418,0,0,0,0,0,-2.4092,-2.4114,-2.4106,-2.4109,-2.4117,-2.4127,-2.4127,-2.4118,-2.4106,-2.4115,-2.411,-2.4098,-2.4118,-2.4107,-2.4109,-2.4122,-2.4143,-2.4146,-2.4148,-2.4171,-2.4176,-2.418,0,0,0,0,0,0,-2.4119,-2.4113,-2.4105,-2.4126,-2.4127,-2.4122,-2.4134,-2.4124,-2.4128,-2.4125,-2.4113,-2.4113,-2.4129,-2.4127,-2.4116,-2.4145,-2.4128,-2.4131,-2.4145,-2.415,-2.4154,-2.4153,-2.4094,0,0,0,0,0,-2.4128,-2.4137,-2.4131,-2.415,-2.4151,-2.4142,-2.4147,-2.4139,-2.4139,-2.4139,-2.4136,-2.4136,-2.4142,-2.4146,-2.4151,-2.4172,-2.417,-2.4182,-2.4186,-2.4189,-2.4191,-2.42,-2.4204,-2.4156,-2.4156,-2.4156,0,0,-2.4145,-2.4143,-2.415,-2.4156,-2.4155,-2.4163,-2.4143,-2.4154,-2.4159,-2.4141,-2.4154,-2.4151,-2.415,-2.4168,-2.4175,-2.4167,-2.4204,-2.4192,-2.4195,-2.4195,-2.4202,-2.4207,-2.4211,-2.4157,-2.4157,-2.4157,0,0,-2.4182,-2.4182,-2.4196,-2.4196,-2.4195,-2.4189,-2.4193,-2.4189,-2.4186,-2.4199,-2.4185,-2.4191,-2.4202,-2.4202,-2.4203,-2.4236,-2.4224,-2.4238,-2.4258,-2.4266,-2.427,-2.4273,-2.4283,-2.4287,-2.424,-2.424,-2.424,0,-2.4204,-2.4216,-2.4206,-2.4216,-2.4218,-2.4201,-2.4215,-2.4215,-2.4216,-2.4217,-2.4208,-2.422,-2.4218,-2.4234,-2.4242,-2.4244,-2.4246,-2.4238,-2.427,-2.4274,-2.4276,-2.4285,-2.4289,-2.4242,-2.4242,-2.4241,-2.4241,0,-2.4242,-2.4251,-2.4263,-2.4263,-2.4267,-2.4279,-2.4269,-2.4274,-2.4265,-2.4259,-2.4271,-2.4269,-2.4272,-2.4275,-2.4268,-2.4289,-2.4284,-2.4273,-2.4256,-2.4283,-2.4291,-2.4295,-2.4244,-2.4243,-2.4243,-2.4243,0,0,-2.4296,-2.4289,-2.4293,-2.4292,-2.4289,-2.4295,-2.4306,-2.4309,-2.4312,-2.4313,-2.432,-2.4329,-2.4317,-2.4319,-2.4311,-2.4318,-2.4341,-2.4306,-2.4305,-2.4311,-2.4362,-2.4369,-2.4374,-2.4334,-2.4335,-2.4335,-2.4362,0,-2.433,-2.4347,-2.4337,-2.4356,-2.4362,-2.4345,-2.4354,-2.4352,-2.4347,-2.4351,-2.4345,-2.435,-2.4337,-2.4337,-2.4343,-2.4337,-2.4351,-2.4335,-2.4339,-2.4339,-2.4339,-2.4378,-2.4387,-2.4412,-2.4365,-2.4366,-2.4366,0,-2.4371,-2.4373,-2.4392,-2.4385,-2.4387,-2.4396,-2.4396,-2.44,-2.4397,-2.4393,-2.4393,-2.4382,-2.439,-2.4374,-2.4385,-2.4374,-2.4375,-2.4372,-2.4372,-2.4371,-2.4354,-2.4377,-2.442,-2.4423,-2.4371,-2.4371,-2.437,0,-2.4406,-2.4413,-2.4425,-2.4424,-2.4417,-2.4423,-2.442,-2.4416,-2.4418,-2.4418,-2.4418,-2.442,-2.442,-2.4421,-2.441,-2.4399,-2.4421,-2.4404,-2.4416,-2.4416,-2.442,-2.442,-2.4463,-2.4423,-2.4423,-2.4423,-2.4423,0,-2.4444,-2.4456,-2.444,-2.4447,-2.4459,-2.4446,-2.4458,-2.4454,-2.445,-2.4455,-2.444,-2.4445,-2.4431,-2.4434,-2.4426,-2.4434,-2.4435,-2.4431,-2.4428,-2.4431,-2.4431,-2.4431,-2.4428,-2.4424,-2.4424,-2.4424,-2.4424,0,-2.4485,-2.4475,-2.4486,-2.4477,-2.4475,-2.4485,-2.4477,-2.4482,-2.4475,-2.4482,-2.4482,-2.4471,-2.4474,-2.4463,-2.4464,-2.4458,-2.447,-2.4466,-2.4471,-2.4469,-2.4481,-2.4479,-2.4523,-2.4527,-2.4487,-2.4488,-2.4488,0,-2.4509,-2.4517,-2.4509,-2.4511,-2.4509,-2.4512,-2.4513,-2.45,-2.4502,-2.4497,-2.4503,-2.4504,-2.4504,-2.4509,-2.45,-2.45,-2.4494,-2.451,-2.4494,-2.4496,-2.4492,-2.4491,-2.4491,-2.4513,-2.4513,-2.4514,-2.4514,0,-2.4551,-2.4545,-2.4547,-2.4547,-2.4548,-2.4547,-2.4545,-2.4547,-2.4533,-2.4535,-2.4537,-2.4537,-2.4537,-2.4538,-2.4536,-2.4532,-2.452,-2.4519,-2.4521,-2.4524,-2.4526,-2.4523,-2.4478,-2.4518,-2.4517,-2.4517,-2.4517,-2.4517,-2.4583,-2.4589,-2.4583,-2.4585,-2.4582,-2.458,-2.4584,-2.4576,-2.4578,-2.4576,-2.4569,-2.4572,-2.4566,-2.4562,-2.4559,-2.456,-2.4553,-2.4557,-2.4558,-2.4558,-2.4559,-2.4527,-2.456,-2.456,-2.456,-2.456,-2.456,0,-2.4623,-2.4618,-2.462,-2.4617,-2.4618,-2.4606,-2.4603,-2.4604,-2.4607,-2.4603,-2.4603,-2.4604,-2.4604,-2.4595,-2.4593,-2.4596,-2.459,-2.4596,-2.4595,-2.4594,-2.4567,-2.4564,-2.46,-2.46,-2.46,-2.46,-2.46,-2.46,-2.4644,-2.4653,-2.4646,-2.4651,-2.4646,-2.4648,-2.4647,-2.4644,-2.4641,-2.4642,-2.4642,-2.4636,-2.4629,-2.4627,-2.4626,-2.4623,-2.4622,-2.4629,-2.4625,-2.46,-2.4596,-2.4592,-2.4589,-2.463,-2.463,-2.4651,-2.4651,-2.4651]}]]